[[{"header":{"parameterUnit":"m.s-1","parameterCategory":1,"la1":30.2991,"la2":30.254,"lo1":-89.0895,"lo2":-89.0444,"dy":0.0017,"dx":0.0017,"nx":28,"ny":28,"refTime":"2024-04-03T21:00:00:Z","depth":0,"parameterNumber":2,"parameterNumberName":"U-component_of_WINDS"},"data":[0,0,0,0,0,0,0,0,0,0,0,0,0,0,0,0,0,0,0,0,0,0,0,0,0,0,0,0,0,0,0,0,0,0,0,0,0,0,0,0,0,0,0,0,0,0,0,0,0,0,0,0,0,0,0,0,0,0,5.6329,5.633,0,5.6467,5.6468,5.647,5.6395,5.6392,5.6388,5.6384,5.6529,5.6536,5.6543,0,0,0,0,0,0,0,0,0,0,0,0,0,5.6006,5.6012,5.6329,5.6331,5.6332,5.6467,5.6469,5.647,5.6396,5.6391,5.6387,5.6383,5.6526,5.6535,5.6544,0,0,0,0,0,0,0,0,0,0,0,0,0,5.6145,5.6014,5.6329,5.6311,5.6311,5.6466,5.6469,5.6471,5.6397,5.6391,5.6386,5.638,5.6523,5.6534,5.6545,5.6726,0,0,5.6579,5.6583,0,0,0,0,0,0,0,0,5.6138,5.6157,5.6312,5.6313,5.6313,5.6408,5.6408,5.6557,5.6398,5.6364,5.6384,5.6378,5.6493,5.6506,5.6545,5.6733,5.6739,5.658,5.6586,5.6591,5.6594,0,0,0,0,0,0,0,5.6128,5.6151,5.6383,5.6314,5.6315,5.6298,5.6312,5.6435,5.6459,5.6367,5.6362,5.6379,5.6492,5.6534,5.6548,5.6741,5.6579,5.6589,5.6596,5.66,5.7089,5.7095,0,0,0,0,0,0,5.6119,5.6143,5.6379,5.6388,5.6209,5.6309,5.6324,5.6383,5.6457,5.6463,5.6384,5.6375,5.6518,5.6535,5.6552,5.6772,5.6591,5.6601,5.6608,5.7082,5.709,5.7097,0,0,0,0,0,0,5.6112,5.6141,5.6374,5.6264,5.6293,5.632,5.6388,5.6389,5.6431,5.647,5.6474,5.6422,5.6514,5.6537,5.6684,5.6776,5.6606,5.6616,5.7075,5.7085,5.7093,5.721,0,0,0,0,0,0,5.6103,5.6139,5.6206,5.6266,5.6299,5.6502,5.6393,5.6396,5.645,5.644,5.6507,5.6513,5.6512,5.6668,5.6695,5.6788,5.6625,5.7067,5.7079,5.709,5.7198,5.7223,5.7243,0,0,0,0,0,5.6092,5.6233,5.621,5.6239,5.6384,5.6507,5.6526,5.6521,5.6457,5.6527,5.6552,5.6511,5.6761,5.6684,5.6713,5.6811,5.7061,5.7076,5.7089,5.7188,5.7218,5.7243,0,0,0,0,0,0,5.6184,5.6241,5.6215,5.638,5.644,5.6494,5.6581,5.6552,5.6631,5.6618,5.661,5.6626,5.6779,5.6809,5.6722,5.6992,5.6901,5.6922,5.6966,5.6995,5.7017,5.7007,5.6634,0,0,0,0,0,5.6223,5.6317,5.6362,5.6504,5.6535,5.6553,5.6607,5.6598,5.6659,5.6684,5.672,5.6782,5.6875,5.6936,5.7024,5.7202,5.7218,5.7285,5.7307,5.7325,5.7344,5.7444,5.7475,5.7144,5.7144,5.7143,0,0,5.6305,5.6348,5.6408,5.6523,5.6568,5.6668,5.6575,5.6683,5.6757,5.67,5.6842,5.6871,5.694,5.7105,5.7179,5.7135,5.7439,5.7343,5.7358,5.7367,5.7462,5.7493,5.7521,5.7154,5.7152,5.715,0,0,5.6506,5.6547,5.6671,5.6718,5.6787,5.6799,5.6829,5.6889,5.6906,5.7048,5.7009,5.7098,5.7257,5.7309,5.7356,5.7581,5.7547,5.761,5.7727,5.7825,5.7851,5.7874,5.7957,5.7986,5.7628,5.7628,5.7628,0,5.66,5.6747,5.6738,5.6851,5.6904,5.6857,5.6984,5.7031,5.7125,5.7164,5.7113,5.7314,5.7357,5.7535,5.759,5.7629,5.7665,5.7602,5.7848,5.7871,5.7893,5.7971,5.8002,5.7635,5.7635,5.7634,5.7633,0,5.6861,5.6964,5.7056,5.7148,5.7212,5.7331,5.7342,5.7408,5.7395,5.7413,5.756,5.761,5.7708,5.775,5.7737,5.7927,5.7898,5.7848,5.7757,5.7932,5.8006,5.8035,5.7646,5.7643,5.7641,5.7639,0,0,5.7122,5.721,5.7244,5.7287,5.7361,5.7442,5.756,5.7656,5.7714,5.7781,5.7882,5.8019,5.7975,5.8028,5.8022,5.8108,5.8286,5.8047,5.8049,5.8092,5.8501,5.8539,5.8574,5.8263,5.8269,5.8274,5.8496,0,5.733,5.7535,5.7533,5.7724,5.7821,5.778,5.7883,5.7941,5.7962,5.8049,5.8072,5.8171,5.8103,5.8135,5.8218,5.8247,5.8368,5.823,5.8359,5.8364,5.8345,5.8612,5.8652,5.886,5.8525,5.853,5.8533,0,5.7599,5.7676,5.7877,5.794,5.7981,5.8074,5.8163,5.8245,5.8312,5.8321,5.8383,5.8364,5.8487,5.8393,5.8564,5.847,5.8523,5.8546,5.8554,5.8566,5.846,5.8634,5.8925,5.8957,5.8578,5.8574,5.8571,0,5.7773,5.7927,5.8068,5.8105,5.8181,5.8248,5.8283,5.8344,5.8403,5.8481,5.852,5.8612,5.8663,5.8736,5.8744,5.8674,5.8918,5.8823,5.8931,5.8931,5.8984,5.8981,5.929,5.9017,5.9016,5.9015,5.9015,0,5.8006,5.8131,5.8147,5.8234,5.8374,5.8371,5.8511,5.854,5.8595,5.8688,5.8658,5.8747,5.8751,5.8843,5.885,5.8993,5.9016,5.9028,5.9029,5.9032,5.9031,5.9067,5.9054,5.9024,5.9022,5.902,5.9019,0,5.8223,5.8238,5.839,5.845,5.8468,5.857,5.8622,5.8706,5.8725,5.8844,5.8872,5.8902,5.9009,5.9024,5.9149,5.9154,5.9326,5.9311,5.9304,5.9302,5.941,5.9401,5.9754,5.9802,5.9496,5.9499,5.9501,0,5.8371,5.8467,5.8538,5.8598,5.8637,5.8734,5.8795,5.8796,5.8861,5.8945,5.902,5.9124,5.9207,5.9381,5.9415,5.9511,5.9499,5.9617,5.9514,5.9515,5.9504,5.9499,5.951,5.9637,5.964,5.9643,5.9645,0,5.8634,5.8637,5.8724,5.8816,5.8889,5.8961,5.9029,5.9081,5.9091,5.9166,5.9274,5.9339,5.9468,5.9573,5.9669,5.9707,5.968,5.9678,5.9708,5.9713,5.9706,5.9713,5.936,5.967,5.9667,5.9665,5.9664,5.9663,5.8822,5.8907,5.8971,5.907,5.9121,5.9186,5.9269,5.9299,5.9389,5.9494,5.949,5.9611,5.9678,5.9804,5.9849,5.9945,5.9907,5.995,5.9962,5.9973,5.9985,5.9689,5.9962,5.9961,5.9961,5.996,5.996,0,5.9085,5.9125,5.9216,5.9312,5.9392,5.9358,5.9432,5.9501,5.9608,5.9672,5.9755,5.9882,5.9984,6.0027,6.0128,6.0197,6.0187,6.0224,6.0219,6.0229,6.0012,5.9976,6.023,6.023,6.023,6.023,6.023,6.023,5.9231,5.9373,5.9385,5.9553,5.9592,5.9709,5.9755,5.9816,5.9867,6.001,6.0095,6.0122,6.0179,6.0284,6.0378,6.0388,6.0427,6.047,6.0475,6.0271,6.0244,6.0218,6.0185,6.0478,6.0479,6.0685,6.0687,6.0688]},{"header":{"parameterUnit":"m.s-1","parameterCategory":1,"la1":30.2991,"la2":30.254,"lo1":-89.0895,"lo2":-89.0444,"dy":0.0017,"dx":0.0017,"nx":28,"ny":28,"refTime":"2024-04-03T21:00:00:Z","depth":0,"parameterNumber":3,"parameterNumberName":"V-component_of_WINDS"},"data":[0,0,0,0,0,0,0,0,0,0,0,0,0,0,0,0,0,0,0,0,0,0,0,0,0,0,0,0,0,0,0,0,0,0,0,0,0,0,0,0,0,0,0,0,0,0,0,0,0,0,0,0,0,0,0,0,0,0,-2.3894,-2.3895,0,-2.3963,-2.3964,-2.3965,-2.3987,-2.3986,-2.3986,-2.3986,-2.4056,-2.4059,-2.4061,0,0,0,0,0,0,0,0,0,0,0,0,0,-2.3782,-2.3784,-2.3894,-2.3895,-2.3896,-2.3963,-2.3964,-2.3965,-2.3987,-2.3986,-2.3986,-2.3986,-2.4056,-2.4058,-2.4061,0,0,0,0,0,0,0,0,0,0,0,0,0,-2.3839,-2.3784,-2.3894,-2.3915,-2.3917,-2.3963,-2.3964,-2.3965,-2.3987,-2.3986,-2.3986,-2.3985,-2.4055,-2.4058,-2.4061,-2.4091,0,0,-2.4071,-2.4073,0,0,0,0,0,0,0,0,-2.3835,-2.3843,-2.3911,-2.3914,-2.3916,-2.3966,-2.3951,-2.4008,-2.3987,-2.3961,-2.3986,-2.3985,-2.4027,-2.4032,-2.4046,-2.4095,-2.4098,-2.4072,-2.4074,-2.4075,-2.4076,0,0,0,0,0,0,0,-2.3831,-2.384,-2.3922,-2.3912,-2.3915,-2.3921,-2.3929,-2.3961,-2.3995,-2.3963,-2.3965,-2.3972,-2.4028,-2.4043,-2.4048,-2.4099,-2.4072,-2.4074,-2.4076,-2.4078,-2.4176,-2.4177,0,0,0,0,0,0,-2.3824,-2.3836,-2.3919,-2.3924,-2.3874,-2.3923,-2.3932,-2.3951,-2.3995,-2.4002,-2.3973,-2.3973,-2.4038,-2.4044,-2.4051,-2.4089,-2.4075,-2.4078,-2.408,-2.4175,-2.4176,-2.4177,0,0,0,0,0,0,-2.3821,-2.3831,-2.3917,-2.3881,-2.3892,-2.3926,-2.3947,-2.3952,-2.3967,-2.4003,-2.4009,-2.3982,-2.4038,-2.4046,-2.4081,-2.4092,-2.408,-2.4083,-2.4175,-2.4176,-2.4176,-2.4166,0,0,0,0,0,0,-2.3818,-2.383,-2.3841,-2.3881,-2.3894,-2.3946,-2.3947,-2.3954,-2.3973,-2.3974,-2.4013,-2.4019,-2.4038,-2.4076,-2.4084,-2.4096,-2.4085,-2.4174,-2.4175,-2.4176,-2.4165,-2.4166,-2.4167,0,0,0,0,0,-2.3814,-2.3836,-2.3842,-2.3852,-2.3909,-2.3946,-2.3954,-2.3975,-2.3973,-2.3985,-2.4009,-2.4018,-2.409,-2.408,-2.4089,-2.4102,-2.4173,-2.4175,-2.4176,-2.4165,-2.4166,-2.4167,0,0,0,0,0,0,-2.3796,-2.3841,-2.3849,-2.3883,-2.3911,-2.395,-2.3965,-2.3976,-2.4004,-2.4004,-2.403,-2.4038,-2.4072,-2.409,-2.4079,-2.4134,-2.4132,-2.4135,-2.412,-2.4122,-2.4122,-2.4117,-2.4088,0,0,0,0,0,-2.3797,-2.3823,-2.3861,-2.3888,-2.3901,-2.3931,-2.3948,-2.3963,-2.3992,-2.4004,-2.4029,-2.4058,-2.4087,-2.4105,-2.4134,-2.4169,-2.4178,-2.4182,-2.4183,-2.4184,-2.4186,-2.4207,-2.4209,-2.4182,-2.4182,-2.4182,0,0,-2.3797,-2.3825,-2.384,-2.3885,-2.3908,-2.3935,-2.3941,-2.3969,-2.3989,-2.4008,-2.4043,-2.4063,-2.4096,-2.4131,-2.4148,-2.4148,-2.4196,-2.4185,-2.4186,-2.4188,-2.4208,-2.4211,-2.4213,-2.4183,-2.4182,-2.4182,0,0,-2.3812,-2.3836,-2.3861,-2.3884,-2.3919,-2.3939,-2.3945,-2.3983,-2.3997,-2.4032,-2.4047,-2.4072,-2.4121,-2.4145,-2.4163,-2.4188,-2.4198,-2.4197,-2.4201,-2.4221,-2.4223,-2.4225,-2.4235,-2.4237,-2.42,-2.42,-2.42,0,-2.3808,-2.385,-2.3873,-2.3901,-2.392,-2.3939,-2.3965,-2.3987,-2.4029,-2.4042,-2.4042,-2.4105,-2.4129,-2.417,-2.4176,-2.419,-2.4198,-2.4192,-2.4221,-2.4223,-2.4226,-2.4235,-2.4238,-2.4199,-2.4199,-2.4199,-2.4199,0,-2.3844,-2.3872,-2.3889,-2.3929,-2.3951,-2.3978,-2.4005,-2.4025,-2.4038,-2.4058,-2.4094,-2.4123,-2.4159,-2.417,-2.4182,-2.4213,-2.4212,-2.4216,-2.4214,-2.4227,-2.4236,-2.424,-2.4199,-2.4199,-2.4199,-2.4199,0,0,-2.3848,-2.3902,-2.3908,-2.3927,-2.3967,-2.399,-2.4018,-2.4053,-2.4069,-2.4098,-2.4123,-2.4165,-2.4169,-2.419,-2.4206,-2.4223,-2.4242,-2.4225,-2.4226,-2.4227,-2.4278,-2.4274,-2.4278,-2.4248,-2.4249,-2.425,-2.4275,0,-2.3868,-2.3919,-2.3941,-2.3982,-2.4009,-2.4028,-2.4053,-2.408,-2.41,-2.4126,-2.4148,-2.4178,-2.4181,-2.4194,-2.4212,-2.4235,-2.4252,-2.4234,-2.4272,-2.4273,-2.4262,-2.4283,-2.4279,-2.4301,-2.4279,-2.4279,-2.428,0,-2.3898,-2.3928,-2.3971,-2.4009,-2.4021,-2.4043,-2.4077,-2.4102,-2.4134,-2.4147,-2.4171,-2.4186,-2.4217,-2.4214,-2.4257,-2.4244,-2.4261,-2.4276,-2.4277,-2.4281,-2.4277,-2.4287,-2.4309,-2.4312,-2.4286,-2.4285,-2.4285,0,-2.3898,-2.3948,-2.3981,-2.3997,-2.4042,-2.4057,-2.4076,-2.4108,-2.4128,-2.4158,-2.4171,-2.4204,-2.4222,-2.4248,-2.4272,-2.4267,-2.4313,-2.4312,-2.4325,-2.4325,-2.4333,-2.4332,-2.4358,-2.4345,-2.4345,-2.4345,-2.4344,0,-2.3918,-2.3943,-2.3981,-2.4001,-2.4031,-2.4057,-2.4086,-2.4107,-2.4135,-2.416,-2.4178,-2.4201,-2.4232,-2.4259,-2.4278,-2.4311,-2.4319,-2.4331,-2.4336,-2.4329,-2.4328,-2.434,-2.4339,-2.4345,-2.4345,-2.4345,-2.4345,0,-2.3921,-2.3948,-2.3985,-2.4025,-2.4035,-2.4056,-2.409,-2.4111,-2.4132,-2.4163,-2.4172,-2.4205,-2.4238,-2.4265,-2.4308,-2.4321,-2.4355,-2.4361,-2.4344,-2.4347,-2.4359,-2.4357,-2.4393,-2.44,-2.4382,-2.4382,-2.4382,0,-2.3932,-2.3953,-2.3995,-2.4013,-2.4032,-2.4061,-2.4082,-2.4108,-2.4129,-2.4168,-2.4184,-2.4218,-2.4247,-2.4299,-2.4327,-2.436,-2.4366,-2.4377,-2.4371,-2.4365,-2.4367,-2.4365,-2.4368,-2.4377,-2.4377,-2.4377,-2.4377,0,-2.3949,-2.3961,-2.399,-2.4023,-2.4047,-2.4075,-2.4103,-2.4117,-2.4149,-2.4171,-2.4205,-2.4228,-2.4272,-2.4306,-2.4343,-2.4363,-2.4376,-2.4379,-2.4384,-2.4377,-2.4367,-2.4373,-2.4346,-2.4378,-2.4378,-2.4378,-2.4378,-2.4378,-2.3957,-2.3976,-2.4009,-2.4041,-2.4065,-2.4091,-2.4112,-2.4137,-2.4165,-2.4203,-2.4217,-2.4252,-2.4285,-2.4336,-2.4357,-2.4385,-2.4386,-2.4393,-2.4395,-2.4396,-2.4395,-2.4363,-2.4391,-2.4391,-2.4391,-2.4391,-2.4391,0,-2.3974,-2.3997,-2.4026,-2.4065,-2.409,-2.41,-2.4132,-2.4152,-2.4183,-2.4212,-2.424,-2.428,-2.4313,-2.4344,-2.4379,-2.4396,-2.4403,-2.4404,-2.4403,-2.4408,-2.4392,-2.4384,-2.4398,-2.4398,-2.4398,-2.4398,-2.4398,-2.4398,-2.3987,-2.402,-2.4036,-2.4082,-2.4105,-2.4139,-2.4156,-2.4181,-2.4205,-2.4248,-2.4276,-2.4296,-2.4326,-2.4364,-2.4395,-2.4404,-2.4416,-2.4416,-2.4426,-2.441,-2.4409,-2.4408,-2.4401,-2.4418,-2.4418,-2.444,-2.444,-2.444]}]]